Time,TemperatureF,DewpointF,PressureIn,WindDirection,WindDirectionDegrees,WindSpeedMPH,WindSpeedGustMPH,Humidity,HourlyPrecipIn,Conditions,Clouds,dailyrainin,SoftwareType,DateUTC
2013-08-14 00:00:00,65.5,59.5,30.07,ESE,113,0.0,12.0,81,0.00,,,0.00,Wunderground v.1.15,2013-08-14 05:00:00,
2013-08-14 00:05:00,65.4,59.4,30.08,ESE,113,0.0,12.0,81,0.00,,,0.00,Wunderground v.1.15,2013-08-14 05:05:00,
2013-08-14 00:10:00,65.4,59.4,30.08,ESE,113,0.0,12.0,81,0.00,,,0.00,Wunderground v.1.15,2013-08-14 05:10:00,
2013-08-14 00:20:00,65.3,59.3,30.08,ESE,113,0.0,12.0,81,0.00,,,0.00,Wunderground v.1.15,2013-08-14 05:20:00,
2013-08-14 00:25:00,65.2,59.2,30.09,ESE,113,0.0,12.0,81,0.00,,,0.00,Wunderground v.1.15,2013-08-14 05:25:00,
2013-08-14 00:35:00,65.0,59.4,30.09,ESE,113,0.0,12.0,82,0.00,,,0.00,Wunderground v.1.15,2013-08-14 05:35:00,
2013-08-14 00:40:00,64.9,59.3,30.09,ESE,113,0.0,12.0,82,0.00,,,0.00,Wunderground v.1.15,2013-08-14 05:40:00,
2013-08-14 00:45:00,64.8,59.2,30.09,ESE,113,0.0,12.0,82,0.00,,,0.00,Wunderground v.1.15,2013-08-14 05:45:00,
2013-08-14 00:55:00,64.3,59.0,30.09,ESE,113,0.0,12.0,83,0.00,,,0.00,Wunderground v.1.15,2013-08-14 05:55:00,
2013-08-14 01:00:00,64.1,58.8,30.09,ESE,113,0.0,12.0,83,0.00,,,0.00,Wunderground v.1.15,2013-08-14 06:00:00,
2013-08-14 01:05:00,63.8,58.9,30.09,ESE,113,0.0,12.0,84,0.00,,,0.00,Wunderground v.1.15,2013-08-14 06:05:00,
2013-08-14 01:10:00,63.6,58.7,30.09,ESE,113,0.0,12.0,84,0.00,,,0.00,Wunderground v.1.15,2013-08-14 06:10:00,
2013-08-14 01:20:00,63.3,58.7,30.09,ESE,113,0.0,12.0,85,0.00,,,0.00,Wunderground v.1.15,2013-08-14 06:20:00,
2013-08-14 01:25:00,63.1,58.5,30.09,ESE,113,0.0,12.0,85,0.00,,,0.00,Wunderground v.1.15,2013-08-14 06:25:00,
2013-08-14 01:30:00,63.0,58.4,30.10,ESE,113,0.0,12.0,85,0.00,,,0.00,Wunderground v.1.15,2013-08-14 06:30:00,
2013-08-14 01:35:00,62.9,58.6,30.10,ESE,113,0.0,12.0,86,0.00,,,0.00,Wunderground v.1.15,2013-08-14 06:35:00,
2013-08-14 01:40:00,62.9,58.6,30.09,ESE,113,0.0,12.0,86,0.00,,,0.00,Wunderground v.1.15,2013-08-14 06:40:00,
2013-08-14 01:45:00,62.9,58.6,30.09,ESE,113,0.0,12.0,86,0.00,,,0.00,Wunderground v.1.15,2013-08-14 06:45:00,
2013-08-14 01:50:00,62.9,58.3,30.09,ESE,113,0.0,12.0,85,0.00,,,0.00,Wunderground v.1.15,2013-08-14 06:50:00,
2013-08-14 01:55:00,63.1,58.2,30.09,ESE,113,0.0,12.0,84,0.00,,,0.00,Wunderground v.1.15,2013-08-14 06:55:00,
2013-08-14 02:05:00,63.9,58.3,30.09,ESE,113,0.0,12.0,82,0.00,,,0.00,Wunderground v.1.15,2013-08-14 07:05:00,
2013-08-14 02:10:00,64.1,58.1,30.09,ESE,113,0.0,12.0,81,0.00,,,0.00,Wunderground v.1.15,2013-08-14 07:10:00,
2013-08-14 02:15:00,64.2,58.2,30.09,ESE,113,0.0,12.0,81,0.00,,,0.00,Wunderground v.1.15,2013-08-14 07:15:00,
2013-08-14 02:25:00,64.2,58.2,30.09,ESE,113,0.0,12.0,81,0.00,,,0.00,Wunderground v.1.15,2013-08-14 07:25:00,
2013-08-14 02:30:00,64.0,58.1,30.09,ESE,113,0.0,12.0,81,0.00,,,0.00,Wunderground v.1.15,2013-08-14 07:30:00,
2013-08-14 02:40:00,63.9,58.0,30.09,ESE,113,0.0,12.0,81,0.00,,,0.00,Wunderground v.1.15,2013-08-14 07:40:00,
2013-08-14 02:45:00,63.9,58.3,30.09,ESE,113,0.0,12.0,82,0.00,,,0.00,Wunderground v.1.15,2013-08-14 07:45:00,
2013-08-14 02:50:00,63.7,58.1,30.09,ESE,113,0.0,12.0,82,0.00,,,0.00,Wunderground v.1.15,2013-08-14 07:50:00,
2013-08-14 02:55:00,63.5,58.2,30.09,ESE,113,0.0,12.0,83,0.00,,,0.00,Wunderground v.1.15,2013-08-14 07:55:00,
2013-08-14 03:00:00,63.3,58.0,30.09,ESE,113,0.0,12.0,83,0.00,,,0.00,Wunderground v.1.15,2013-08-14 08:00:00,
2013-08-14 03:05:00,63.1,58.2,30.09,ESE,113,0.0,12.0,84,0.00,,,0.00,Wunderground v.1.15,2013-08-14 08:05:00,
2013-08-14 03:10:00,63.0,58.1,30.09,ESE,113,0.0,12.0,84,0.00,,,0.00,Wunderground v.1.15,2013-08-14 08:10:00,
2013-08-14 03:15:00,62.8,57.9,30.09,ESE,113,0.0,12.0,84,0.00,,,0.00,Wunderground v.1.15,2013-08-14 08:15:00,
2013-08-14 03:20:00,62.6,57.7,30.09,ESE,113,0.0,12.0,84,0.00,,,0.00,Wunderground v.1.15,2013-08-14 08:20:00,
2013-08-14 03:30:00,62.2,57.3,30.09,ESE,113,0.0,12.0,84,0.00,,,0.00,Wunderground v.1.15,2013-08-14 08:30:00,
2013-08-14 03:35:00,62.2,57.3,30.09,ESE,113,0.0,12.0,84,0.00,,,0.00,Wunderground v.1.15,2013-08-14 08:35:00,
2013-08-14 03:45:00,61.8,56.9,30.08,ESE,113,0.0,12.0,84,0.00,,,0.00,Wunderground v.1.15,2013-08-14 08:45:00,
2013-08-14 03:50:00,61.6,57.0,30.08,ESE,113,0.0,12.0,85,0.00,,,0.00,Wunderground v.1.15,2013-08-14 08:50:00,
2013-08-14 03:55:00,61.3,56.8,30.07,ESE,113,0.0,12.0,85,0.00,,,0.00,Wunderground v.1.15,2013-08-14 08:55:00,
2013-08-14 04:00:00,61.1,56.6,30.07,ESE,113,0.0,12.0,85,0.00,,,0.00,Wunderground v.1.15,2013-08-14 09:00:00,
2013-08-14 04:05:00,61.0,56.8,30.07,ESE,113,0.0,12.0,86,0.00,,,0.00,Wunderground v.1.15,2013-08-14 09:05:00,
2013-08-14 04:10:00,60.9,56.7,30.08,ESE,113,0.0,12.0,86,0.00,,,0.00,Wunderground v.1.15,2013-08-14 09:10:00,
2013-08-14 04:15:00,60.7,56.2,30.08,ESE,113,0.0,12.0,85,0.00,,,0.00,Wunderground v.1.15,2013-08-14 09:15:00,
2013-08-14 04:20:00,60.4,56.2,30.07,ESE,113,0.0,12.0,86,0.00,,,0.00,Wunderground v.1.15,2013-08-14 09:20:00,
2013-08-14 04:25:00,60.2,56.0,30.07,ESE,113,0.0,12.0,86,0.00,,,0.00,Wunderground v.1.15,2013-08-14 09:25:00,
2013-08-14 04:35:00,60.2,56.3,30.07,ESE,113,0.0,12.0,87,0.00,,,0.00,Wunderground v.1.15,2013-08-14 09:35:00,
2013-08-14 04:40:00,60.1,56.2,30.07,ESE,113,0.0,12.0,87,0.00,,,0.00,Wunderground v.1.15,2013-08-14 09:40:00,
2013-08-14 04:45:00,60.0,56.1,30.07,ESE,113,0.0,12.0,87,0.00,,,0.00,Wunderground v.1.15,2013-08-14 09:45:00,
2013-08-14 04:55:00,59.6,55.7,30.07,ESE,113,0.0,12.0,87,0.00,,,0.00,Wunderground v.1.15,2013-08-14 09:55:00,
2013-08-14 05:00:00,59.5,55.9,30.07,ESE,113,0.0,12.0,88,0.00,,,0.00,Wunderground v.1.15,2013-08-14 10:00:00,
2013-08-14 05:05:00,59.5,55.9,30.07,ESE,113,0.0,12.0,88,0.00,,,0.00,Wunderground v.1.15,2013-08-14 10:05:00,
2013-08-14 05:10:00,59.5,55.9,30.07,ESE,113,0.0,12.0,88,0.00,,,0.00,Wunderground v.1.15,2013-08-14 10:10:00,
2013-08-14 05:15:00,59.3,55.7,30.07,ESE,113,0.0,12.0,88,0.00,,,0.00,Wunderground v.1.15,2013-08-14 10:15:00,
2013-08-14 05:25:00,59.1,55.5,30.08,ESE,113,0.0,12.0,88,0.00,,,0.00,Wunderground v.1.15,2013-08-14 10:25:00,
2013-08-14 05:30:00,58.9,55.4,30.08,ESE,113,0.0,12.0,88,0.00,,,0.00,Wunderground v.1.15,2013-08-14 10:30:00,
2013-08-14 05:40:00,58.6,55.4,30.08,ESE,113,0.0,12.0,89,0.00,,,0.00,Wunderground v.1.15,2013-08-14 10:40:00,
2013-08-14 05:45:00,58.6,55.4,30.08,ESE,113,0.0,12.0,89,0.00,,,0.00,Wunderground v.1.15,2013-08-14 10:45:00,
2013-08-14 05:50:00,58.7,55.5,30.08,ESE,113,0.0,12.0,89,0.00,,,0.00,Wunderground v.1.15,2013-08-14 10:50:00,
2013-08-14 05:55:00,58.7,55.5,30.08,ESE,113,0.0,12.0,89,0.00,,,0.00,Wunderground v.1.15,2013-08-14 10:55:00,
2013-08-14 06:00:00,58.6,55.4,30.08,ESE,113,0.0,12.0,89,0.00,,,0.00,Wunderground v.1.15,2013-08-14 11:00:00,
2013-08-14 06:05:00,58.6,55.4,30.09,ESE,113,0.0,12.0,89,0.00,,,0.00,Wunderground v.1.15,2013-08-14 11:05:00,
2013-08-14 06:10:00,58.5,55.3,30.09,ESE,113,0.0,12.0,89,0.00,,,0.00,Wunderground v.1.15,2013-08-14 11:10:00,
2013-08-14 06:15:00,58.4,55.2,30.09,ESE,113,0.0,12.0,89,0.00,,,0.00,Wunderground v.1.15,2013-08-14 11:15:00,
2013-08-14 06:20:00,58.2,55.0,30.09,ESE,113,0.0,12.0,89,0.00,,,0.00,Wunderground v.1.15,2013-08-14 11:20:00,
2013-08-14 06:25:00,58.0,54.8,30.10,ESE,113,1.0,12.0,89,0.00,,,0.00,Wunderground v.1.15,2013-08-14 11:25:00,
2013-08-14 06:35:00,57.7,54.8,30.09,ESE,113,1.0,12.0,90,0.00,,,0.00,Wunderground v.1.15,2013-08-14 11:35:00,
2013-08-14 06:45:00,57.9,55.3,30.09,ESE,113,0.0,12.0,91,0.00,,,0.00,Wunderground v.1.15,2013-08-14 11:45:00,
2013-08-14 06:50:00,57.9,55.3,30.09,ESE,113,0.0,12.0,91,0.00,,,0.00,Wunderground v.1.15,2013-08-14 11:50:00,
2013-08-14 06:55:00,58.1,55.2,30.09,ESE,113,0.0,12.0,90,0.00,,,0.00,Wunderground v.1.15,2013-08-14 11:55:00,
2013-08-14 07:00:00,58.1,55.2,30.09,ESE,113,0.0,12.0,90,0.00,,,0.00,Wunderground v.1.15,2013-08-14 12:00:00,
2013-08-14 07:10:00,58.2,55.3,30.09,ESE,113,0.0,12.0,90,0.00,,,0.00,Wunderground v.1.15,2013-08-14 12:10:00,
2013-08-14 07:15:00,58.3,55.4,30.09,ESE,113,0.0,12.0,90,0.00,,,0.00,Wunderground v.1.15,2013-08-14 12:15:00,
2013-08-14 07:20:00,58.4,55.5,30.09,ESE,113,0.0,12.0,90,0.00,,,0.00,Wunderground v.1.15,2013-08-14 12:20:00,
2013-08-14 07:25:00,58.4,55.5,30.09,ESE,113,0.0,12.0,90,0.00,,,0.00,Wunderground v.1.15,2013-08-14 12:25:00,
2013-08-14 07:30:00,58.4,55.5,30.09,ESE,113,0.0,12.0,90,0.00,,,0.00,Wunderground v.1.15,2013-08-14 12:30:00,
2013-08-14 07:40:00,58.4,55.8,30.10,ESE,113,0.0,12.0,91,0.00,,,0.00,Wunderground v.1.15,2013-08-14 12:40:00,
2013-08-14 07:50:00,58.7,56.1,30.10,ESE,113,0.0,12.0,91,0.00,,,0.00,Wunderground v.1.15,2013-08-14 12:50:00,
2013-08-14 07:55:00,58.8,56.5,30.10,ESE,113,0.0,12.0,92,0.00,,,0.00,Wunderground v.1.15,2013-08-14 12:55:00,
2013-08-14 08:00:00,58.9,56.6,30.10,ESE,113,0.0,12.0,92,0.00,,,0.00,Wunderground v.1.15,2013-08-14 13:00:00,
2013-08-14 08:05:00,59.0,56.4,30.10,ESE,113,0.0,12.0,91,0.00,,,0.00,Wunderground v.1.15,2013-08-14 13:05:00,
2013-08-14 08:10:00,59.2,56.6,30.10,ESE,113,0.0,12.0,91,0.00,,,0.00,Wunderground v.1.15,2013-08-14 13:10:00,
2013-08-14 08:20:00,59.6,57.0,30.11,ESE,113,0.0,12.0,91,0.00,,,0.00,Wunderground v.1.15,2013-08-14 13:20:00,
2013-08-14 08:25:00,59.9,57.3,30.11,ESE,113,0.0,12.0,91,0.00,,,0.00,Wunderground v.1.15,2013-08-14 13:25:00,
2013-08-14 08:30:00,60.2,57.6,30.11,ESE,113,0.0,12.0,91,0.00,,,0.00,Wunderground v.1.15,2013-08-14 13:30:00,
2013-08-14 08:35:00,60.4,57.8,30.11,ESE,113,0.0,12.0,91,0.00,,,0.00,Wunderground v.1.15,2013-08-14 13:35:00,
2013-08-14 08:45:00,61.1,58.5,30.11,ESE,113,0.0,12.0,91,0.00,,,0.00,Wunderground v.1.15,2013-08-14 13:45:00,
2013-08-14 08:55:00,62.5,59.2,30.11,SE,128,3.0,12.0,89,0.00,,,0.00,Wunderground v.1.15,2013-08-14 13:55:00,
2013-08-14 09:00:00,63.4,59.1,30.11,SE,143,4.0,4.0,86,0.00,,,0.00,Wunderground v.1.15,2013-08-14 14:00:00,
2013-08-14 09:05:00,64.2,59.3,30.11,SE,139,4.0,5.0,84,0.00,,,0.00,Wunderground v.1.15,2013-08-14 14:05:00,
2013-08-14 09:10:00,65.0,59.4,30.11,SE,136,5.0,12.0,82,0.00,,,0.00,Wunderground v.1.15,2013-08-14 14:10:00,
2013-08-14 09:15:00,65.5,59.2,30.11,SE,144,6.0,12.0,80,0.00,,,0.00,Wunderground v.1.15,2013-08-14 14:15:00,
2013-08-14 09:25:00,66.5,59.1,30.11,South,169,7.0,12.0,77,0.00,,,0.00,Wunderground v.1.15,2013-08-14 14:25:00,
2013-08-14 09:30:00,66.8,59.4,30.11,SSE,155,6.0,12.0,77,0.00,,,0.00,Wunderground v.1.15,2013-08-14 14:30:00,
2013-08-14 09:35:00,67.2,59.4,30.11,South,177,7.0,12.0,76,0.00,,,0.00,Wunderground v.1.15,2013-08-14 14:35:00,
2013-08-14 09:40:00,67.5,59.3,30.11,SSE,155,8.0,8.0,75,0.00,,,0.00,Wunderground v.1.15,2013-08-14 14:40:00,
2013-08-14 09:50:00,67.7,59.5,30.11,South,169,8.0,8.0,75,0.00,,,0.00,Wunderground v.1.15,2013-08-14 14:50:00,
2013-08-14 10:00:00,68.1,59.5,30.11,South,175,6.0,12.0,74,0.00,,,0.00,Wunderground v.1.15,2013-08-14 15:00:00,
2013-08-14 10:05:00,68.3,60.1,30.11,South,175,5.0,12.0,75,0.00,,,0.00,Wunderground v.1.15,2013-08-14 15:05:00,
2013-08-14 10:10:00,68.6,60.4,30.11,South,175,3.0,12.0,75,0.00,,,0.00,Wunderground v.1.15,2013-08-14 15:10:00,
2013-08-14 10:15:00,68.6,60.4,30.11,South,179,2.0,12.0,75,0.00,,,0.00,Wunderground v.1.15,2013-08-14 15:15:00,
2013-08-14 10:20:00,68.8,60.6,30.11,South,171,4.0,4.0,75,0.00,,,0.00,Wunderground v.1.15,2013-08-14 15:20:00,
2013-08-14 10:25:00,69.1,60.5,30.11,SSE,167,3.0,5.0,74,0.00,,,0.00,Wunderground v.1.15,2013-08-14 15:25:00,
2013-08-14 10:35:00,69.6,60.9,30.11,South,169,5.0,12.0,74,0.00,,,0.00,Wunderground v.1.15,2013-08-14 15:35:00,
2013-08-14 10:40:00,69.9,60.8,30.11,SSE,158,5.0,12.0,73,0.00,,,0.00,Wunderground v.1.15,2013-08-14 15:40:00,
2013-08-14 10:50:00,70.8,60.9,30.11,SE,132,5.0,5.0,71,0.00,,,0.00,Wunderground v.1.15,2013-08-14 15:50:00,
2013-08-14 10:55:00,71.4,60.7,30.10,SSE,155,6.0,7.0,69,0.00,,,0.00,Wunderground v.1.15,2013-08-14 15:55:00,
2013-08-14 11:00:00,71.7,61.0,30.10,SE,138,7.0,7.0,69,0.00,,,0.00,Wunderground v.1.15,2013-08-14 16:00:00,
2013-08-14 11:10:00,72.0,60.9,30.10,SE,144,6.0,6.0,68,0.00,,,0.00,Wunderground v.1.15,2013-08-14 16:10:00,
2013-08-14 11:15:00,72.0,60.9,30.10,SSE,152,7.0,7.0,68,0.00,,,0.00,Wunderground v.1.15,2013-08-14 16:15:00,
2013-08-14 11:20:00,72.3,60.7,30.10,SE,146,8.0,12.0,67,0.00,,,0.00,Wunderground v.1.15,2013-08-14 16:20:00,
2013-08-14 11:25:00,72.4,60.4,30.10,SSE,163,8.0,12.0,66,0.00,,,0.00,Wunderground v.1.15,2013-08-14 16:25:00,
2013-08-14 11:35:00,73.1,60.6,30.10,SSE,163,8.0,9.0,65,0.00,,,0.00,Wunderground v.1.15,2013-08-14 16:35:00,
2013-08-14 11:40:00,73.7,60.8,30.10,South,182,8.0,8.0,64,0.00,,,0.00,Wunderground v.1.15,2013-08-14 16:40:00,
2013-08-14 11:45:00,73.7,60.3,30.09,SSE,155,8.0,11.0,63,0.00,,,0.00,Wunderground v.1.15,2013-08-14 16:45:00,
2013-08-14 11:50:00,73.7,59.9,30.09,South,176,8.0,12.0,62,0.00,,,0.00,Wunderground v.1.15,2013-08-14 16:50:00,
2013-08-14 11:55:00,73.8,60.0,30.09,SSE,150,9.0,12.0,62,0.00,,,0.00,Wunderground v.1.15,2013-08-14 16:55:00,
2013-08-14 12:00:00,74.2,59.9,30.08,South,169,10.0,10.0,61,0.00,,,0.00,Wunderground v.1.15,2013-08-14 17:00:00,
2013-08-14 12:10:00,74.6,58.4,30.08,SSE,164,11.0,11.0,57,0.00,,,0.00,Wunderground v.1.15,2013-08-14 17:10:00,
2013-08-14 12:15:00,74.8,59.0,30.08,SSE,154,12.0,12.0,58,0.00,,,0.00,Wunderground v.1.15,2013-08-14 17:15:00,
2013-08-14 12:25:00,74.7,59.9,30.08,SE,142,11.0,12.0,60,0.00,,,0.00,Wunderground v.1.15,2013-08-14 17:25:00,
2013-08-14 12:30:00,74.5,58.8,30.08,South,170,11.0,11.0,58,0.00,,,0.00,Wunderground v.1.15,2013-08-14 17:30:00,
2013-08-14 12:35:00,74.4,59.1,30.08,SSE,151,11.0,12.0,59,0.00,,,0.00,Wunderground v.1.15,2013-08-14 17:35:00,
2013-08-14 12:40:00,74.6,59.3,30.08,SSE,151,10.0,12.0,59,0.00,,,0.00,Wunderground v.1.15,2013-08-14 17:40:00,
2013-08-14 12:45:00,75.0,59.7,30.08,SE,136,10.0,12.0,59,0.00,,,0.00,Wunderground v.1.15,2013-08-14 17:45:00,
2013-08-14 12:55:00,75.6,58.8,30.07,SSE,153,10.0,12.0,56,0.00,,,0.00,Wunderground v.1.15,2013-08-14 17:55:00,
2013-08-14 13:00:00,75.8,59.5,30.07,SSE,154,11.0,16.0,57,0.00,,,0.00,Wunderground v.1.15,2013-08-14 18:00:00,
2013-08-14 13:05:00,75.7,58.9,30.07,SSE,162,11.0,16.0,56,0.00,,,0.00,Wunderground v.1.15,2013-08-14 18:05:00,
2013-08-14 13:20:00,74.9,58.6,30.07,SE,143,11.0,13.0,57,0.00,,,0.00,Wunderground v.1.15,2013-08-14 18:20:00,
2013-08-14 13:30:00,74.5,59.2,30.08,SE,137,11.0,12.0,59,0.00,,,0.00,Wunderground v.1.15,2013-08-14 18:30:00,
2013-08-14 13:35:00,74.4,59.6,30.07,SSE,153,11.0,12.0,60,0.00,,,0.00,Wunderground v.1.15,2013-08-14 18:35:00,
2013-08-14 13:45:00,74.5,59.7,30.07,SE,135,9.0,12.0,60,0.00,,,0.00,Wunderground v.1.15,2013-08-14 18:45:00,
2013-08-14 13:50:00,74.4,59.6,30.07,SSE,148,9.0,12.0,60,0.00,,,0.00,Wunderground v.1.15,2013-08-14 18:50:00,
2013-08-14 14:00:00,74.4,60.1,30.06,SE,140,10.0,12.0,61,0.00,,,0.00,Wunderground v.1.15,2013-08-14 19:00:00,
2013-08-14 14:15:00,74.4,59.6,30.06,SE,142,10.0,17.0,60,0.00,,,0.00,Wunderground v.1.15,2013-08-14 19:15:00,
2013-08-14 14:25:00,74.3,60.0,30.06,SSE,159,10.0,12.0,61,0.00,,,0.00,Wunderground v.1.15,2013-08-14 19:25:00,
2013-08-14 14:35:00,74.4,60.1,30.06,South,178,10.0,12.0,61,0.00,,,0.00,Wunderground v.1.15,2013-08-14 19:35:00,
2013-08-14 14:40:00,74.5,59.7,30.06,SSE,160,10.0,10.0,60,0.00,,,0.00,Wunderground v.1.15,2013-08-14 19:40:00,
2013-08-14 14:50:00,74.5,59.7,30.06,SSE,166,9.0,9.0,60,0.00,,,0.00,Wunderground v.1.15,2013-08-14 19:50:00,
2013-08-14 14:55:00,74.6,59.8,30.06,SE,140,9.0,12.0,60,0.00,,,0.00,Wunderground v.1.15,2013-08-14 19:55:00,
2013-08-14 15:00:00,74.5,60.2,30.06,SSE,148,8.0,12.0,61,0.00,,,0.00,Wunderground v.1.15,2013-08-14 20:00:00,
2013-08-14 15:05:00,74.3,59.5,30.05,SSE,157,9.0,12.0,60,0.00,,,0.00,Wunderground v.1.15,2013-08-14 20:05:00,
2013-08-14 15:10:00,74.2,59.9,30.06,SE,137,10.0,10.0,61,0.00,,,0.00,Wunderground v.1.15,2013-08-14 20:10:00,
2013-08-14 15:15:00,74.3,60.0,30.05,SE,133,9.0,11.0,61,0.00,,,0.00,Wunderground v.1.15,2013-08-14 20:15:00,
2013-08-14 15:30:00,74.5,59.7,30.05,SE,134,10.0,14.0,60,0.00,,,0.00,Wunderground v.1.15,2013-08-14 20:30:00,
2013-08-14 15:35:00,74.4,59.6,30.05,SE,146,10.0,14.0,60,0.00,,,0.00,Wunderground v.1.15,2013-08-14 20:35:00,
2013-08-14 15:40:00,74.5,59.7,30.05,SSE,164,10.0,10.0,60,0.00,,,0.00,Wunderground v.1.15,2013-08-14 20:40:00,
2013-08-14 15:45:00,74.4,59.6,30.05,SE,132,9.0,11.0,60,0.00,,,0.00,Wunderground v.1.15,2013-08-14 20:45:00,
2013-08-14 15:55:00,74.2,59.4,30.05,SE,134,9.0,12.0,60,0.00,,,0.00,Wunderground v.1.15,2013-08-14 20:55:00,
2013-08-14 16:00:00,74.4,59.1,30.04,SE,130,9.0,14.0,59,0.00,,,0.00,Wunderground v.1.15,2013-08-14 21:00:00,
2013-08-14 16:05:00,74.4,59.1,30.04,SSE,157,9.0,14.0,59,0.00,,,0.00,Wunderground v.1.15,2013-08-14 21:05:00,
2013-08-14 16:10:00,74.5,59.7,30.04,SE,132,9.0,12.0,60,0.00,,,0.00,Wunderground v.1.15,2013-08-14 21:10:00,
2013-08-14 16:15:00,74.5,60.2,30.04,ESE,123,9.0,12.0,61,0.00,,,0.00,Wunderground v.1.15,2013-08-14 21:15:00,
2013-08-14 16:20:00,74.5,60.6,30.03,SE,131,8.0,8.0,62,0.00,,,0.00,Wunderground v.1.15,2013-08-14 21:20:00,
2013-08-14 16:25:00,74.6,60.7,30.03,SE,140,8.0,12.0,62,0.00,,,0.00,Wunderground v.1.15,2013-08-14 21:25:00,
2013-08-14 16:35:00,74.8,60.9,30.03,SE,139,7.0,12.0,62,0.00,,,0.00,Wunderground v.1.15,2013-08-14 21:35:00,
2013-08-14 16:40:00,74.8,60.4,30.03,SE,136,8.0,12.0,61,0.00,,,0.00,Wunderground v.1.15,2013-08-14 21:40:00,
2013-08-14 16:45:00,74.6,61.2,30.03,SE,133,9.0,12.0,63,0.00,,,0.00,Wunderground v.1.15,2013-08-14 21:45:00,
2013-08-14 16:55:00,74.3,60.9,30.03,SE,129,8.0,12.0,63,0.00,,,0.00,Wunderground v.1.15,2013-08-14 21:55:00,
2013-08-14 17:00:00,74.3,61.3,30.03,SE,132,7.0,12.0,64,0.00,,,0.00,Wunderground v.1.15,2013-08-14 22:00:00,
2013-08-14 17:10:00,74.0,60.6,30.02,SSE,154,9.0,12.0,63,0.00,,,0.00,Wunderground v.1.15,2013-08-14 22:10:00,
2013-08-14 17:20:00,73.8,61.3,30.02,SSE,161,9.0,9.0,65,0.00,,,0.00,Wunderground v.1.15,2013-08-14 22:20:00,
2013-08-14 17:25:00,73.6,61.5,30.02,SSE,149,7.0,12.0,66,0.00,,,0.00,Wunderground v.1.15,2013-08-14 22:25:00,
2013-08-14 17:30:00,73.3,61.3,30.02,SSE,157,8.0,12.0,66,0.00,,,0.00,Wunderground v.1.15,2013-08-14 22:30:00,
2013-08-14 17:35:00,73.1,61.5,30.02,SSE,148,10.0,12.0,67,0.00,,,0.00,Wunderground v.1.15,2013-08-14 22:35:00,
2013-08-14 17:40:00,73.0,61.4,30.02,SE,136,9.0,12.0,67,0.00,,,0.00,Wunderground v.1.15,2013-08-14 22:40:00,
2013-08-14 17:45:00,72.9,61.3,30.02,SSE,163,9.0,12.0,67,0.00,,,0.00,Wunderground v.1.15,2013-08-14 22:45:00,
2013-08-14 17:55:00,72.6,61.4,30.01,SE,129,8.0,12.0,68,0.00,,,0.00,Wunderground v.1.15,2013-08-14 22:55:00,
2013-08-14 18:05:00,72.4,61.7,30.01,SE,133,6.0,12.0,69,0.00,,,0.00,Wunderground v.1.15,2013-08-14 23:05:00,
2013-08-14 18:15:00,72.4,61.7,30.01,SE,128,9.0,12.0,69,0.00,,,0.00,Wunderground v.1.15,2013-08-14 23:15:00,
2013-08-14 18:20:00,72.4,61.7,30.01,SE,136,8.0,8.0,69,0.00,,,0.00,Wunderground v.1.15,2013-08-14 23:20:00,
2013-08-14 18:30:00,72.4,61.7,30.00,ESE,123,9.0,9.0,69,0.00,,,0.00,Wunderground v.1.15,2013-08-14 23:30:00,
2013-08-14 18:35:00,72.5,61.7,30.00,SE,140,9.0,12.0,69,0.00,,,0.00,Wunderground v.1.15,2013-08-14 23:35:00,
2013-08-14 18:40:00,72.5,62.2,30.00,SE,137,9.0,12.0,70,0.00,,,0.00,Wunderground v.1.15,2013-08-14 23:40:00,
2013-08-14 18:50:00,72.7,61.9,30.00,SE,142,7.0,12.0,69,0.00,,,0.00,Wunderground v.1.15,2013-08-14 23:50:00,
2013-08-14 18:55:00,72.7,61.9,30.00,ESE,123,8.0,12.0,69,0.00,,,0.00,Wunderground v.1.15,2013-08-14 23:55:00,
2013-08-14 19:05:00,72.3,62.0,30.00,SE,136,9.0,12.0,70,0.00,,,0.00,Wunderground v.1.15,2013-08-15 00:05:00,
2013-08-14 19:10:00,72.1,61.8,30.00,SE,140,10.0,10.0,70,0.00,,,0.00,Wunderground v.1.15,2013-08-15 00:10:00,
2013-08-14 19:15:00,72.0,61.7,30.00,SE,141,10.0,12.0,70,0.00,,,0.00,Wunderground v.1.15,2013-08-15 00:15:00,
2013-08-14 19:20:00,71.9,62.0,30.00,SE,127,10.0,12.0,71,0.00,,,0.00,Wunderground v.1.15,2013-08-15 00:20:00,
2013-08-14 19:30:00,71.7,62.2,30.00,SE,128,8.0,12.0,72,0.00,,,0.00,Wunderground v.1.15,2013-08-15 00:30:00,
2013-08-14 19:40:00,71.6,61.7,29.99,SE,141,11.0,11.0,71,0.00,,,0.00,Wunderground v.1.15,2013-08-15 00:40:00,
2013-08-14 19:45:00,71.6,61.7,29.99,SE,146,10.0,12.0,71,0.00,,,0.00,Wunderground v.1.15,2013-08-15 00:45:00,
2013-08-14 19:50:00,71.6,61.3,29.99,SE,138,9.0,12.0,70,0.00,,,0.00,Wunderground v.1.15,2013-08-15 00:50:00,
2013-08-14 19:55:00,71.5,61.2,29.99,SSE,150,9.0,12.0,70,0.00,,,0.00,Wunderground v.1.15,2013-08-15 00:55:00,
2013-08-14 20:00:00,71.4,61.1,30.00,SE,140,7.0,12.0,70,0.00,,,0.00,Wunderground v.1.15,2013-08-15 01:00:00,
2013-08-14 20:05:00,71.2,60.9,30.00,SE,134,7.0,12.0,70,0.00,,,0.00,Wunderground v.1.15,2013-08-15 01:05:00,
2013-08-14 20:15:00,71.0,60.7,30.00,SE,142,9.0,12.0,70,0.00,,,0.00,Wunderground v.1.15,2013-08-15 01:15:00,
2013-08-14 20:20:00,71.0,60.7,30.00,SE,131,9.0,9.0,70,0.00,,,0.00,Wunderground v.1.15,2013-08-15 01:20:00,
2013-08-14 20:25:00,70.8,60.9,30.00,SE,134,9.0,12.0,71,0.00,,,0.00,Wunderground v.1.15,2013-08-15 01:25:00,
2013-08-14 20:35:00,70.8,60.9,30.00,SE,136,8.0,9.0,71,0.00,,,0.00,Wunderground v.1.15,2013-08-15 01:35:00,
2013-08-14 20:40:00,70.7,60.8,29.99,SSE,154,9.0,12.0,71,0.00,,,0.00,Wunderground v.1.15,2013-08-15 01:40:00,
2013-08-14 20:50:00,70.5,60.6,29.99,SE,144,9.0,9.0,71,0.00,,,0.00,Wunderground v.1.15,2013-08-15 01:50:00,
2013-08-14 20:55:00,70.3,60.8,29.99,SE,138,10.0,11.0,72,0.00,,,0.00,Wunderground v.1.15,2013-08-15 01:55:00,
2013-08-14 21:00:00,70.2,60.7,29.99,South,169,10.0,10.0,72,0.00,,,0.00,Wunderground v.1.15,2013-08-15 02:00:00,
2013-08-14 21:05:00,70.0,60.6,29.99,SE,143,10.0,12.0,72,0.00,,,0.00,Wunderground v.1.15,2013-08-15 02:05:00,
2013-08-14 21:10:00,69.9,60.5,29.99,SE,143,9.0,9.0,72,0.00,,,0.00,Wunderground v.1.15,2013-08-15 02:10:00,
2013-08-14 21:20:00,69.9,60.5,29.99,SSE,150,9.0,12.0,72,0.00,,,0.00,Wunderground v.1.15,2013-08-15 02:20:00,
2013-08-14 21:30:00,69.7,60.3,29.99,SE,136,10.0,10.0,72,0.00,,,0.00,Wunderground v.1.15,2013-08-15 02:30:00,
2013-08-14 21:35:00,69.7,60.3,29.99,SE,144,10.0,13.0,72,0.00,,,0.00,Wunderground v.1.15,2013-08-15 02:35:00,
2013-08-14 21:40:00,69.8,60.0,29.99,SE,132,10.0,10.0,71,0.00,,,0.00,Wunderground v.1.15,2013-08-15 02:40:00,
2013-08-14 21:45:00,69.7,59.5,29.98,SSE,153,10.0,11.0,70,0.00,,,0.00,Wunderground v.1.15,2013-08-15 02:45:00,
2013-08-14 21:55:00,69.9,59.7,29.98,SE,136,11.0,13.0,70,0.00,,,0.00,Wunderground v.1.15,2013-08-15 02:55:00,
2013-08-14 22:00:00,69.9,59.7,29.98,SE,140,11.0,14.0,70,0.00,,,0.00,Wunderground v.1.15,2013-08-15 03:00:00,
2013-08-14 22:05:00,70.0,59.8,29.98,SE,134,10.0,14.0,70,0.00,,,0.00,Wunderground v.1.15,2013-08-15 03:05:00,
2013-08-14 22:10:00,69.9,59.7,29.99,SE,138,9.0,9.0,70,0.00,,,0.00,Wunderground v.1.15,2013-08-15 03:10:00,
2013-08-14 22:15:00,69.9,60.1,30.00,SE,133,6.0,12.0,71,0.00,,,0.00,Wunderground v.1.15,2013-08-15 03:15:00,
2013-08-14 22:25:00,69.7,60.3,30.00,SE,132,6.0,12.0,72,0.00,,,0.00,Wunderground v.1.15,2013-08-15 03:25:00,
2013-08-14 22:35:00,69.5,60.5,30.00,SE,136,8.0,12.0,73,0.00,,,0.00,Wunderground v.1.15,2013-08-15 03:35:00,
2013-08-14 22:40:00,69.4,60.4,30.00,SE,138,7.0,7.0,73,0.00,,,0.00,Wunderground v.1.15,2013-08-15 03:40:00,
2013-08-14 22:45:00,69.4,60.0,30.01,SE,139,7.0,12.0,72,0.00,,,0.00,Wunderground v.1.15,2013-08-15 03:45:00,
2013-08-14 22:50:00,69.4,60.0,30.02,SE,132,8.0,12.0,72,0.00,,,0.00,Wunderground v.1.15,2013-08-15 03:50:00,
2013-08-14 22:55:00,69.5,60.1,30.01,SE,138,8.0,12.0,72,0.00,,,0.00,Wunderground v.1.15,2013-08-15 03:55:00,
2013-08-14 23:05:00,69.5,60.1,30.01,SSE,159,10.0,13.0,72,0.00,,,0.00,Wunderground v.1.15,2013-08-15 04:05:00,
2013-08-14 23:10:00,69.5,60.1,30.00,SE,138,10.0,10.0,72,0.00,,,0.00,Wunderground v.1.15,2013-08-15 04:10:00,
2013-08-14 23:15:00,69.5,60.1,30.00,SE,146,10.0,14.0,72,0.00,,,0.00,Wunderground v.1.15,2013-08-15 04:15:00,
2013-08-14 23:20:00,69.5,60.1,30.00,SSE,156,10.0,10.0,72,0.00,,,0.00,Wunderground v.1.15,2013-08-15 04:20:00,
2013-08-14 23:30:00,69.7,60.3,30.00,SSE,168,10.0,10.0,72,0.00,,,0.00,Wunderground v.1.15,2013-08-15 04:30:00,
2013-08-14 23:35:00,69.7,59.9,30.00,SSE,165,11.0,11.0,71,0.00,,,0.00,Wunderground v.1.15,2013-08-15 04:35:00,
2013-08-14 23:40:00,69.8,60.0,30.00,SSE,154,10.0,12.0,71,0.00,,,0.00,Wunderground v.1.15,2013-08-15 04:40:00,
2013-08-14 23:45:00,69.8,59.6,30.00,SSE,165,9.0,12.0,70,0.00,,,0.00,Wunderground v.1.15,2013-08-15 04:45:00,
2013-08-14 23:50:00,69.9,59.7,30.00,SSE,160,9.0,12.0,70,0.00,,,0.00,Wunderground v.1.15,2013-08-15 04:50:00,
2013-08-14 23:55:00,69.9,59.7,30.00,SE,146,9.0,12.0,70,0.00,,,0.00,Wunderground v.1.15,2013-08-15 04:55:00,